When you browse on this site, cookies collect data to enhance your experience and personalize the content and advertising you see.
Visit our Privacy Policy to learn more. By continuing to use the site, you agree to this use of cookies and data.
  • In Deutschland
  • Länderverzeichnis
  • Für 7 Tage
  • Wassertemperatur
  • Satellitenkarten
  • Wetterkarte
  • Widgets
  • user-avatar
    Anmelden

    Stündliche Wetter Schönebeck

    Heute, 17 Dezember, Montag

    Zeit Temperatur Niederschläge Wind Luftdruck Luftfeuchtigkeit
    00:00 0°C° 0 mm 1 m/S 756 mmHg 78%
    01:00 0°C° 0 mm 1 m/S 757 mmHg 79%
    02:00 0°C° 0 mm 1 m/S 757 mmHg 81%
    03:00 +1°C° 0 mm 1 m/S 757 mmHg 82%
    04:00 +1°C° 0 mm 1 m/S 757 mmHg 84%
    05:00 +1°C° 0 mm 1 m/S 758 mmHg 86%
    06:00 -2°C° 0 mm 2 m/S 758 mmHg 88%
    07:00 -2°C° 0 mm 2 m/S 758 mmHg 90%
    08:00 -1°C° 0 mm 2 m/S 759 mmHg 89%
    09:00 +1°C° 0 mm 2 m/S 759 mmHg 88%
    10:00 +2°C° 0 mm 1 m/S 760 mmHg 86%
    11:00 +2°C° 0 mm 2 m/S 760 mmHg 84%
    12:00 +3°C° 0 mm 2 m/S 760 mmHg 81%
    13:00 +4°C° 0 mm 2 m/S 760 mmHg 78%
    14:00 +3°C° 0 mm 2 m/S 760 mmHg 82%
    15:00 +2°C° 0 mm 2 m/S 761 mmHg 86%
    16:00 +1°C° 0 mm 2 m/S 761 mmHg 90%
    17:00 +1°C° 0 mm 2 m/S 761 mmHg 90%
    18:00 +1°C° 0 mm 2 m/S 762 mmHg 91%
    19:00 +1°C° 0 mm 2 m/S 762 mmHg 91%
    20:00 0°C° 0.1 mm 3 m/S 762 mmHg 92%
    21:00 0°C° 0.1 mm 3 m/S 763 mmHg 92%
    22:00 +1°C° 0.1 mm 3 m/S 763 mmHg 92%
    23:00 +1°C° 0 mm 3 m/S 763 mmHg 92%

    Morgen, 18 Dezember, Dienstag

    Zeit Temperatur Niederschläge Wind Luftdruck Luftfeuchtigkeit
    00:00 +1°C° 0 mm 3 m/S 763 mmHg 92%
    01:00 0°C° 0 mm 3 m/S 764 mmHg 92%
    02:00 +1°C° 0 mm 3 m/S 764 mmHg 92%
    03:00 +1°C° 0 mm 3 m/S 764 mmHg 92%
    04:00 +1°C° 0 mm 3 m/S 764 mmHg 92%
    05:00 0°C° 0 mm 3 m/S 764 mmHg 92%
    06:00 0°C° 0 mm 3 m/S 764 mmHg 93%
    07:00 0°C° 0 mm 3 m/S 764 mmHg 93%
    08:00 +1°C° 0 mm 3 m/S 764 mmHg 92%
    09:00 +1°C° 0 mm 3 m/S 764 mmHg 91%
    10:00 +1°C° 0 mm 3 m/S 764 mmHg 90%
    11:00 +3°C° 0 mm 2 m/S 764 mmHg 88%
    12:00 +4°C° 0 mm 2 m/S 763 mmHg 86%
    13:00 +4°C° 0 mm 2 m/S 763 mmHg 83%
    14:00 +3°C° 0 mm 2 m/S 763 mmHg 86%
    15:00 +3°C° 0 mm 2 m/S 763 mmHg 89%
    16:00 +2°C° 0 mm 2 m/S 762 mmHg 91%
    17:00 +1°C° 0 mm 2 m/S 762 mmHg 92%
    18:00 +1°C° 0 mm 2 m/S 762 mmHg 92%
    19:00 -1°C° 0 mm 2 m/S 762 mmHg 93%
    20:00 -1°C° 0 mm 2 m/S 762 mmHg 92%
    21:00 -1°C° 0 mm 3 m/S 761 mmHg 92%
    22:00 -1°C° 0 mm 3 m/S 761 mmHg 92%
    23:00 -1°C° 0 mm 3 m/S 760 mmHg 91%

    übermorgen, 19 Dezember, Mittwoch

    Zeit Temperatur Niederschläge Wind Luftdruck Luftfeuchtigkeit
    00:00 -1°C° 0 mm 3 m/S 760 mmHg 90%
    01:00 -1°C° 0 mm 3 m/S 760 mmHg 89%
    02:00 -1°C° 0 mm 3 m/S 759 mmHg 88%
    03:00 -1°C° 0 mm 3 m/S 759 mmHg 86%
    04:00 -1°C° 0 mm 3 m/S 758 mmHg 85%
    05:00 -1°C° 0 mm 3 m/S 758 mmHg 84%
    06:00 -1°C° 0 mm 3 m/S 758 mmHg 82%
    07:00 -1°C° 0 mm 3 m/S 757 mmHg 80%
    08:00 -1°C° 0 mm 4 m/S 757 mmHg 77%
    09:00 -1°C° 0 mm 4 m/S 757 mmHg 73%
    10:00 0°C° 0 mm 4 m/S 757 mmHg 70%
    11:00 +1°C° 0.1 mm 3 m/S 757 mmHg 71%
    12:00 +2°C° 0.1 mm 3 m/S 757 mmHg 72%
    13:00 +3°C° 0.1 mm 3 m/S 757 mmHg 73%
    14:00 +2°C° 0.1 mm 3 m/S 756 mmHg 77%
    15:00 +2°C° 0.1 mm 3 m/S 756 mmHg 81%
    16:00 +3°C° 0.1 mm 2 m/S 756 mmHg 85%
    17:00 +2°C° 0 mm 2 m/S 756 mmHg 86%
    18:00 +2°C° 0 mm 2 m/S 756 mmHg 87%
    19:00 +2°C° 0 mm 2 m/S 756 mmHg 88%
    20:00 +2°C° 0 mm 2 m/S 756 mmHg 89%
    21:00 +2°C° 0 mm 2 m/S 757 mmHg 90%
    22:00 +2°C° 0 mm 2 m/S 757 mmHg 91%
    23:00 +2°C° 0.2 mm 2 m/S 757 mmHg 91%

    20 Dezember, Donnerstag

    Zeit Temperatur Niederschläge Wind Luftdruck Luftfeuchtigkeit
    00:00 +2°C° 0.2 mm 2 m/S 756 mmHg 92%
    01:00 +3°C° 0.2 mm 1 m/S 756 mmHg 92%
    02:00 +3°C° 0.5 mm 1 m/S 756 mmHg 93%
    03:00 +2°C° 0.5 mm 2 m/S 756 mmHg 93%
    04:00 +3°C° 0.5 mm 2 m/S 756 mmHg 94%
    05:00 +3°C° 0.4 mm 2 m/S 756 mmHg 94%
    06:00 +3°C° 0.4 mm 2 m/S 756 mmHg 94%
    07:00 +3°C° 0.4 mm 2 m/S 756 mmHg 95%
    08:00 +3°C° 0.1 mm 2 m/S 756 mmHg 94%
    09:00 +3°C° 0.1 mm 2 m/S 756 mmHg 93%
    10:00 +3°C° 0.1 mm 2 m/S 757 mmHg 93%
    11:00 +4°C° 0 mm 2 m/S 757 mmHg 91%
    12:00 +5°C° 0 mm 2 m/S 756 mmHg 88%
    13:00 +5°C° 0 mm 2 m/S 756 mmHg 86%
    14:00 +5°C° 0.1 mm 2 m/S 757 mmHg 89%
    15:00 +4°C° 0.1 mm 2 m/S 757 mmHg 91%
    16:00 +4°C° 0.1 mm 2 m/S 757 mmHg 93%
    17:00 +4°C° 0 mm 2 m/S 757 mmHg 93%
    18:00 +4°C° 0 mm 2 m/S 757 mmHg 93%
    19:00 +3°C° 0 mm 2 m/S 757 mmHg 93%
    20:00 +3°C° 0 mm 2 m/S 758 mmHg 93%
    21:00 +3°C° 0 mm 2 m/S 758 mmHg 92%
    22:00 +2°C° 0 mm 2 m/S 758 mmHg 92%
    23:00 +2°C° 0 mm 2 m/S 758 mmHg 91%

    21 Dezember, Freitag

    Zeit Temperatur Niederschläge Wind Luftdruck Luftfeuchtigkeit
    00:00 +2°C° 0 mm 2 m/S 758 mmHg 91%
    01:00 +2°C° 0 mm 2 m/S 758 mmHg 91%
    02:00 +2°C° 0 mm 2 m/S 758 mmHg 92%
    03:00 +1°C° 0 mm 3 m/S 757 mmHg 92%
    04:00 +1°C° 0 mm 3 m/S 757 mmHg 92%
    05:00 +1°C° 0 mm 3 m/S 757 mmHg 92%
    06:00 +1°C° 0 mm 3 m/S 757 mmHg 91%
    07:00 +1°C° 0 mm 3 m/S 756 mmHg 91%
    08:00 +2°C° 0.1 mm 3 m/S 756 mmHg 90%
    09:00 +3°C° 0.1 mm 3 m/S 756 mmHg 89%
    10:00 +3°C° 0.1 mm 3 m/S 756 mmHg 87%
    11:00 +4°C° 0 mm 3 m/S 756 mmHg 85%
    12:00 +4°C° 0 mm 3 m/S 755 mmHg 84%
    13:00 +5°C° 0 mm 3 m/S 755 mmHg 82%
    14:00 +4°C° 0 mm 3 m/S 755 mmHg 84%
    15:00 +5°C° 0 mm 2 m/S 754 mmHg 87%
    16:00 +4°C° 0 mm 2 m/S 754 mmHg 89%
    17:00 +3°C° 0.1 mm 3 m/S 753 mmHg 89%
    18:00 +3°C° 0.1 mm 3 m/S 753 mmHg 90%
    19:00 +3°C° 0.1 mm 3 m/S 752 mmHg 90%
    20:00 +3°C° 0.4 mm 3 m/S 752 mmHg 90%
    21:00 +3°C° 0.4 mm 3 m/S 751 mmHg 91%
    22:00 +3°C° 0.4 mm 3 m/S 751 mmHg 91%
    23:00 +3°C° 0.5 mm 3 m/S 750 mmHg 91%

    22 Dezember, Samstag

    Zeit Temperatur Niederschläge Wind Luftdruck Luftfeuchtigkeit
    00:00 +3°C° 0.5 mm 3 m/S 750 mmHg 92%
    01:00 +4°C° 0.5 mm 3 m/S 749 mmHg 92%
    02:00 +4°C° 0.3 mm 4 m/S 749 mmHg 92%
    03:00 +5°C° 0.3 mm 4 m/S 750 mmHg 91%
    04:00 +5°C° 0.3 mm 4 m/S 750 mmHg 90%
    05:00 +6°C° 0.2 mm 5 m/S 750 mmHg 88%
    06:00 +5°C° 0.2 mm 6 m/S 751 mmHg 86%
    07:00 +5°C° 0.2 mm 6 m/S 751 mmHg 84%
    08:00 +5°C° 0.1 mm 6 m/S 752 mmHg 85%
    09:00 +6°C° 0.1 mm 5 m/S 752 mmHg 85%
    10:00 +6°C° 0.1 mm 4 m/S 752 mmHg 86%
    11:00 +6°C° 0.5 mm 4 m/S 752 mmHg 86%
    12:00 +6°C° 0.5 mm 4 m/S 752 mmHg 85%
    13:00 +7°C° 0.5 mm 4 m/S 752 mmHg 84%
    14:00 +7°C° 0.3 mm 4 m/S 752 mmHg 85%
    15:00 +7°C° 0.3 mm 4 m/S 752 mmHg 86%
    16:00 +7°C° 0.3 mm 4 m/S 753 mmHg 87%
    17:00 +6°C° 0.1 mm 4 m/S 753 mmHg 89%
    18:00 +6°C° 0.1 mm 4 m/S 754 mmHg 90%
    19:00 +6°C° 0.1 mm 4 m/S 755 mmHg 92%
    20:00 +6°C° 0.1 mm 4 m/S 755 mmHg 92%
    21:00 +7°C° 0.1 mm 3 m/S 756 mmHg 92%
    22:00 +7°C° 0.1 mm 3 m/S 757 mmHg 93%
    23:00 +6°C° 0.6 mm 4 m/S 757 mmHg 90%
    Mehr zeigen